Flag for Russia Weather past 2 weeks in Khabarovsk, Russia

Now
57 °F

Passing clouds.


Feels Like: 55 °F
Forecast: 52 / 61 °F
Wind: 8 mph from Northeast

Location: Habarovsk

Current Time: Sep 3, 2015 at 11:26:22 PM

Latest Report: Sep 3, 2015 at 11:00 PM


Visibility: N/A

Pressure: 29.80 "Hg

Humidity: 94%

Dew point: 55 °F

Location of KhabarovskLocation

Historic Weather in Khabarovsk — Graph

°F

Khabarovsk temperature yesterday

Maximum temperature yesterday: 81 °F (at 1:30 PM)
Minimum temperature yesterday: 59 °F (at 4:30 AM)
Average temperature yesterday: 71 °F

Past Weeks' High & Low Weather Summary

 TemperatureHumidityPressure
High81 °F (Sep 2, 1:30 PM)100% (Aug 19, 11:30 PM)30.09 "Hg (Aug 19, 11:30 PM)
Low55 °F (Aug 25, 5:00 AM)47% (Aug 27, 3:00 PM)29.65 "Hg (Sep 2, 4:30 PM)
Average67 °F84%29.90 "Hg
* Reported Aug 19 10:00 PM — Sep 3 10:00 PM, Khabarovsk, Weather by CustomWeather, © 2015

Note: Actual official high and low records may vary slightly from our data, if they occured in-between our weather recording intervals... More about our weather records

Advertising

Khabarovsk weather history for previous 24 hours

 ConditionsComfort  
Time TempWeatherWind HumidityBarometerVisibility
10:00 PM
Thu, Sep 3
55 °FPassing clouds.1 mph100%29.77 "HgN/A
9:30 PM57 °FPassing clouds.3 mph94%29.77 "HgN/A
9:00 PM57 °FPassing clouds.1 mph94%29.77 "HgN/A
8:30 PM59 °FScattered clouds.1 mph88%29.77 "HgN/A
8:00 PM59 °FScattered clouds.1 mph88%29.77 "HgN/A
7:30 PM61 °FScattered clouds.1 mph88%29.74 "HgN/A
7:00 PM63 °FScattered clouds.1 mph83%29.74 "HgN/A
6:30 PM64 °FScattered clouds.1 mph73%29.74 "HgN/A
6:00 PM68 °FScattered clouds.1 mph60%29.74 "HgN/A
5:30 PM68 °FScattered clouds.3 mph56%29.74 "HgN/A
5:00 PM68 °FScattered clouds.3 mph56%29.74 "HgN/A
4:30 PM68 °FScattered clouds.6 mph56%29.74 "HgN/A
4:00 PM68 °FScattered clouds.3 mph56%29.74 "HgN/A
3:30 PM68 °FScattered clouds.3 mph56%29.74 "HgN/A
3:00 PM68 °FScattered clouds.6 mph56%29.74 "HgN/A
2:30 PM66 °FScattered clouds.3 mph60%29.77 "HgN/A
2:00 PM66 °FScattered clouds.6 mph56%29.77 "HgN/A
1:30 PM68 °FScattered clouds.6 mph56%29.77 "HgN/A
1:00 PM66 °FScattered clouds.3 mph60%29.77 "HgN/A
12:30 PM64 °FScattered clouds.8 mph64%29.77 "HgN/A
12:00 PM63 °FScattered clouds.6 mph68%29.77 "HgN/A
11:30 AM63 °FScattered clouds.6 mph68%29.77 "HgN/A
11:00 AM63 °FScattered clouds.10 mph73%29.77 "HgN/A
10:30 AM63 °FScattered clouds.8 mph73%29.77 "HgN/A
10:00 AM61 °FScattered clouds.10 mph83%29.77 "HgN/A
9:30 AM59 °FScattered clouds.8 mph88%29.77 "HgN/A
9:00 AM59 °FPartly sunny.8 mph88%29.74 "HgN/A
8:30 AM59 °FPartly sunny.10 mph88%29.74 "HgN/A
7:30 AM57 °FPartly sunny.10 mph88%29.74 "HgN/A
7:00 AM57 °FPassing clouds.10 mph94%29.71 "HgN/A
6:30 AM57 °FDrizzle. Low clouds.13 mph100%29.71 "HgN/A
6:00 AM57 °FDrizzle. Low clouds.10 mph100%29.71 "Hg2 mi
5:30 AM59 °FDrizzle. Low clouds.8 mph100%29.68 "Hg2 mi
5:00 AM59 °FDrizzle. Low clouds.8 mph100%29.68 "Hg2 mi
4:30 AM61 °FLow clouds.8 mph100%29.68 "HgN/A
4:00 AM63 °FPassing clouds.8 mph100%29.68 "HgN/A
3:30 AM63 °FPassing clouds.6 mph100%29.68 "HgN/A
3:00 AM63 °FPassing clouds.8 mph100%29.68 "HgN/A
2:30 AM63 °FPassing clouds.6 mph100%29.65 "HgN/A
1:30 AM66 °FClear.8 mph94%29.65 "Hg10 mi
1:00 AM66 °FClear.8 mph94%29.65 "Hg10 mi
12:30 AM66 °FClear.8 mph94%29.65 "Hg10 mi
12:00 AM68 °FClear.8 mph94%29.65 "Hg10 mi
11:30 PM
Wed, Sep 2
68 °FClear.13 mph94%29.65 "Hg10 mi
11:00 PM70 °FClear.10 mph88%29.65 "Hg10 mi
Weather by CustomWeather, © 2015

See weather overviewHow to use our weather pages